15 daagse weersverwachting Molde (NO)

  • Overzicht
  • Per uur
  • 15 dagen
  • Extra
  • Vergelijk
  • Kaarten
  • Dagkaart
  • Meer »
  • Info
  • Statistieken
  • Directe link
    Temp 6h Neerslag Wind  
 03:33     23:36    Daglengte: 20:03 Vandaag
02:00
13°
3.0 mm
2
08:00
13°
16.1 mm
2
14:00
17°
 
3
20:00
16°
 
2
 03:33     23:36    Daglengte: 20:03 Morgen
02:00
13°
3.2 mm
2
08:00
15°
 
3
14:00
16°
6.8 mm
6
20:00
14°
17.6 mm
3
 03:32     23:37    Daglengte: 20:05 Woensdag 19 Jun
02:00
13°
7.5 mm
2
08:00
14°
 
2
14:00
15°
18.7 mm
3
20:00
15°
 
2
Locatie info
Region: MÝre og Romsdal
Latitude: 62.7375°N
Longitude: 7.1591°E
3 masl
Temp/Neerslag /Baro Onweer/Dauwpunt
    Temp Baro 1h Neerslag Dauwpunt Wind UV Bewolking  
 03:33     23:36    Daglengte: 20:03 Vandaag
02:00
13°
1014.6 hPa 3.0 mm
49%
11.2°
2
Windvlaag: 2.2 km/h
87%
03:00
12°
1014.6 hPa 2.0 mm
82%
11.4°
2
Windvlaag: 1.9 km/h
90%
04:00
12°
1014.5 hPa 2.3 mm
82%
11.2°
2
Windvlaag: 1.7 km/h
87%
05:00
12°
1014.3 hPa 2.3 mm
82%
10.9°
2
Windvlaag: 1.6 km/h
85%
06:00
12°
1014.3 hPa 3.1 mm
82%
10.6°
1
Windvlaag: 1.4 km/h
76%
07:00
12°
1014.2 hPa 3.4 mm
82%
10.1°
1
Windvlaag: 1.3 km/h
64%
08:00
13°
1014.3 hPa 3.0 mm
82%
9.7°
2
Windvlaag: 1.4 km/h
49%
09:00
13°
1014.0 hPa
77%
9.8°
2
Windvlaag: 2.1 km/h
32%
10:00
13°
1013.8 hPa
20%
9.5°
2
Windvlaag: 2.4 km/h
25%
11:00
14°
1013.2 hPa
19%
9.4°
3
Windvlaag: 2.6 km/h
15%
12:00
15°
1012.8 hPa
17%
9.1°
3
Windvlaag: 2.5 km/h
4%
13:00
16°
1012.2 hPa
14%
8.1°
3
Windvlaag: 2 km/h
6%
14:00
17°
1011.7 hPa
14%
8.0°
3
Windvlaag: 1.7 km/h
14%
15:00
17°
1010.9 hPa
14%
8.2°
3
Windvlaag: 1.8 km/h
34%
16:00
18°
1010.2 hPa
14%
8.6°
3
Windvlaag: 3 km/h
33%
17:00
18°
1009.3 hPa
14%
9.2°
3
Windvlaag: 2.9 km/h
52%
18:00
17°
1008.8 hPa
14%
11.2°
4
Windvlaag: 4.5 km/h
71%
19:00
16°
1008.5 hPa
24%
12.3°
2
Windvlaag: 4.3 km/h
81%
20:00
16°
1008.8 hPa
82%
12.2°
2
Windvlaag: 2.6 km/h
79%
21:00
15°
1008.8 hPa 3.2 mm
82%
11.8°
2
Windvlaag: 1.5 km/h
81%
22:00
15°
1008.8 hPa
82%
11.5°
2
Windvlaag: 1.5 km/h
47%
23:00
14°
1009.0 hPa
82%
11.2°
2
Windvlaag: 1.2 km/h
24%
 03:33     23:36    Daglengte: 20:03 Morgen
00:00
14°
1009.0 hPa
82%
11.2°
2
Windvlaag: 1.5 km/h
11%
01:00
14°
1009.0 hPa
82%
10.5°
1
Windvlaag: 1.7 km/h
4%
02:00
13°
1008.9 hPa
69%
9.9°
2
Windvlaag: 2.1 km/h
1%
03:00
13°
1008.6 hPa
61%
9.4°
2
Windvlaag: 3.4 km/h
1%
04:00
13°
1008.4 hPa
53%
8.9°
2
Windvlaag: 4.3 km/h
16%
05:00
13°
1008.1 hPa
15%
8.8°
2
Windvlaag: 4.4 km/h
15%
06:00
14°
1007.7 hPa
15%
8.8°
2
Windvlaag: 5.4 km/h
14%
07:00
14°
1007.2 hPa
18%
8.6°
2
Windvlaag: 5.1 km/h
13%
08:00
15°
1007.2 hPa
72%
8.6°
3
Windvlaag: 4.9 km/h
52%
09:00
16°
1007.2 hPa
68%
9.5°
3
Windvlaag: 4.6 km/h
20%
10:00
16°
1007.2 hPa
79%
10.1°
4
Windvlaag: 6.2 km/h
19%
11:00
16°
1007.4 hPa
80%
9.7°
5
Windvlaag: 8.5 km/h
34%
12:00
17°
1007.5 hPa
80%
10.0°
5
Windvlaag: 8.5 km/h
22%
13:00
16°
1007.6 hPa 3.4 mm
79%
9.7°
6
Windvlaag: 7.3 km/h
29%
14:00
16°
1007.9 hPa 3.4 mm
80%
9.2°
6
Windvlaag: 6.6 km/h
26%
15:00
16°
1007.9 hPa 3.3 mm
80%
9.1°
6
Windvlaag: 7.5 km/h
25%
16:00
16°
1008.1 hPa 3.5 mm
79%
9.6°
5
Windvlaag: 7.1 km/h
20%
17:00
15°
1008.0 hPa
74%
9.5°
5
Windvlaag: 6.6 km/h
28%
18:00
15°
1007.9 hPa 3.5 mm
79%
9.1°
4
Windvlaag: 6.5 km/h
38%
19:00
15°
1007.9 hPa 3.7 mm
82%
9.0°
4
Windvlaag: 5.7 km/h
76%
20:00
14°
1007.9 hPa 3.5 mm
81%
9.0°
3
Windvlaag: 4.5 km/h
73%
21:00
14°
1007.9 hPa 3.6 mm
82%
9.4°
2
Windvlaag: 3.4 km/h
61%
22:00
14°
1007.8 hPa
82%
9.9°
1
Windvlaag: 3.1 km/h
44%
23:00
14°
1007.9 hPa 3.9 mm
100%
9.3°
1
Windvlaag: 1.7 km/h
49%
 03:32     23:37    Daglengte: 20:05 Woensdag 19 Jun
00:00
13°
1008.0 hPa
100%
10.1°
2
Windvlaag: 2.6 km/h
81%
01:00
13°
1007.9 hPa
100%
10.0°
2
Windvlaag: 3.1 km/h
37%
02:00
13°
1007.8 hPa
100%
10.1°
2
Windvlaag: 2.9 km/h
45%
03:00
13°
1007.8 hPa
78%
9.6°
2
Windvlaag: 2.7 km/h
30%
04:00
12°
1007.9 hPa
89%
8.5°
2
Windvlaag: 2.5 km/h
26%
05:00
12°
1007.7 hPa
40%
8.2°
2
Windvlaag: 2.3 km/h
35%
06:00
13°
1007.8 hPa
95%
8.1°
2
Windvlaag: 2.5 km/h
46%
07:00
13°
1008.0 hPa
44%
8.1°
1
Windvlaag: 2.2 km/h
57%
08:00
14°
1008.5 hPa
97%
7.9°
2
Windvlaag: 2 km/h
67%
09:00
14°
1009.1 hPa 6.0 mm
93%
7.6°
1
Windvlaag: 2.8 km/h
44%
10:00
15°
1009.3 hPa
95%
7.5°
2
Windvlaag: 3.2 km/h
43%
11:00
15°
1009.6 hPa
97%
8.6°
2
Windvlaag: 4.5 km/h
57%
12:00
15°
1009.7 hPa 6.3 mm
97%
8.8°
3
Windvlaag: 5.1 km/h
61%
13:00
15°
1010.0 hPa
96%
9.4°
2
Windvlaag: 4.9 km/h
62%
14:00
15°
1010.1 hPa 6.4 mm
97%
9.9°
3
Windvlaag: 4.7 km/h
58%
15:00
16°
1010.1 hPa
95%
10.4°
3
Windvlaag: 7.1 km/h
49%
16:00
16°
1009.9 hPa
94%
10.8°
3
Windvlaag: 6 km/h
60%
17:00
16°
1009.8 hPa
92%
11.0°
3
Windvlaag: 5.3 km/h
74%
18:00
15°
1009.5 hPa
44%
11.2°
2
Windvlaag: 3.6 km/h
75%
19:00
15°
1009.3 hPa
42%
11.5°
2
Windvlaag: 2.3 km/h
87%
20:00
15°
1009.1 hPa
30%
11.6°
2
Windvlaag: 0.2 km/h
90%
21:00
15°
1008.5 hPa
22%
11.7°
2
Windvlaag: 2.4 km/h
88%
22:00
14°
1007.8 hPa
21%
11.6°
2
Windvlaag: 3.8 km/h
69%
23:00
14°
1007.1 hPa
21%
11.4°
2
Windvlaag: 5.9 km/h
94%
 03:33     23:37    Daglengte: 20:04 Donderdag 20 Jun
00:00
13°
1006.4 hPa
32%
11.2°
2
Windvlaag: 7.8 km/h
88%
01:00
13°
1005.6 hPa
86%
11.2°
2
Windvlaag: 9.4 km/h
87%
Temp/Neerslag /Baro Onweer/Dauwpunt
    Temp Baro Neerslag Dauwpunt Wind Bewolking  
 03:33     23:36    Daglengte: 20:03 Vandaag
02:00
13°
1014.6 hPa 3.0 mm 11.2°
2
87%
05:00
12°
1014.3 hPa 6.6 mm 10.9°
2
85%
08:00
13°
1014.3 hPa 9.5 mm 9.7°
2
49%
11:00
14°
1013.2 hPa   9.4°
3
15%
14:00
17°
1011.7 hPa   8.0°
3
14%
17:00
18°
1009.3 hPa   9.2°
3
52%
20:00
16°
1008.8 hPa   12.2°
2
79%
23:00
14°
1009.0 hPa 3.2 mm 11.2°
2
24%
 03:33     23:36    Daglengte: 20:03 Morgen
02:00
13°
1008.9 hPa   9.9°
2
1%
05:00
13°
1008.1 hPa   8.8°
2
15%
08:00
15°
1007.2 hPa   8.6°
3
52%
11:00
16°
1007.4 hPa   9.7°
5
34%
14:00
16°
1007.9 hPa 6.8 mm 9.2°
6
26%
17:00
15°
1008.0 hPa 6.9 mm 9.5°
5
28%
20:00
14°
1007.9 hPa 10.7 mm 9.0°
3
73%
23:00
14°
1007.9 hPa 7.5 mm 9.3°
1
49%
 03:32     23:37    Daglengte: 20:05 Woensdag 19 Jun
02:00
13°
1007.8 hPa   10.1°
2
45%
05:00
12°
1007.7 hPa   8.2°
2
35%
08:00
14°
1008.5 hPa   7.9°
2
67%
11:00
15°
1009.6 hPa 6.0 mm 8.6°
2
57%
14:00
15°
1010.1 hPa 12.7 mm 9.9°
3
58%
17:00
16°
1009.8 hPa   11.0°
3
74%
20:00
15°
1009.1 hPa   11.6°
2
90%
23:00
14°
1007.1 hPa   11.4°
2
94%
 03:33     23:37    Daglengte: 20:04 Donderdag 20 Jun
02:00
13°
1004.7 hPa   11.3°
2
90%
05:00
13°
1002.7 hPa 21.1 mm 11.9°
1
89%
08:00
14°
1001.4 hPa 21.5 mm 12.3°
1
87%
11:00
16°
1002.1 hPa 21.5 mm 12.8°
3
86%
14:00
17°
1002.8 hPa 21.9 mm 13.4°
4
85%
17:00
16°
1003.9 hPa 22.7 mm 12.8°
4
68%
20:00
15°
1005.2 hPa 24.3 mm 12.0°
4
52%
23:00
13°
1005.8 hPa 24.4 mm 11.4°
3
67%
 03:33     23:38    Daglengte: 20:05 Vrijdag 21 Jun
02:00
12°
1006.3 hPa 24.5 mm 10.9°
1
81%
05:00
12°
1006.8 hPa 25.1 mm 11.0°
1
79%
08:00
13°
1007.2 hPa 26.0 mm 11.0°
1
77%
11:00
14°
1007.9 hPa 27.0 mm 11.2°
2
77%
14:00
15°
1008.5 hPa 28.4 mm 11.4°
2
77%
17:00
14°
1008.7 hPa 29.0 mm 10.8°
3
77%
20:00
13°
1008.8 hPa 29.7 mm 10.3°
3
76%
23:00
12°
1009.1 hPa 30.6 mm 9.5°
3
67%
 03:33     23:38    Daglengte: 20:05 Zaterdag 22 Jun
02:00
10°
1009.3 hPa 33.3 mm 8.7°
4
57%
05:00
11°
1010.0 hPa 36.4 mm 8.7°
5
62%
08:00
11°
1010.7 hPa 37.0 mm 8.9°
5
66%
11:00
13°
1012.7 hPa 37.6 mm 9.1°
6
68%
14:00
14°
1014.9 hPa 38.4 mm 9.3°
7
70%
17:00
13°
1015.2 hPa 38.6 mm 9.0°
7
67%
20:00
12°
1015.5 hPa 38.6 mm 8.7°
6
64%
23:00
11°
1017.1 hPa 38.7 mm 8.4°
6
70%
 03:33     23:38    Daglengte: 20:05 Zondag 23 Jun
02:00
10°
Voelt als: 7.1°
1018.7 hPa 38.7 mm 8.0°
5
75%
05:00
10°
Voelt als: 7.4°
1018.5 hPa 38.7 mm 8.1°
5
78%
08:00
10°
1018.2 hPa 38.7 mm 8.1°
5
80%
11:00
12°
1020.9 hPa 38.9 mm 8.9°
5
72%
14:00
14°
1023.7 hPa 39.2 mm 9.6°
4
64%
17:00
13°
1023.7 hPa 39.4 mm 9.0°
3
67%
20:00
13°
1023.7 hPa 39.5 mm 8.6°
2
69%
23:00
11°
1023.7 hPa   8.5°
2
68%
 03:34     23:37    Daglengte: 20:03 Maandag 24 Jun
02:00
10°
Voelt als: 9.3°
1023.7 hPa 79.3 mm 8.3°
1
68%
08:00
12°
1022.8 hPa 79.9 mm 8.9°
2
79%
14:00
16°
1023.0 hPa 80.4 mm 10.6°
4
78%
20:00
14°
1022.2 hPa 80.5 mm 9.9°
3
67%
 03:35     23:37    Daglengte: 20:02 Dinsdag 25 Jun
02:00
11°
1022.3 hPa 80.5 mm 9.3°
2
83%
08:00
12°
1021.8 hPa 80.5 mm 9.4°
2
90%
14:00
15°
1023.0 hPa 80.5 mm 10.1°
4
88%
20:00
13°
1021.9 hPa 80.5 mm 9.4°
4
86%
 03:36     23:37    Daglengte: 20:01 Woensdag 26 Jun
02:00
10°
1022.3 hPa 80.5 mm 8.8°
3
86%
08:00
11°
1021.2 hPa 80.5 mm 8.1°
3
86%
14:00
14°
1012.8 hPa 80.5 mm 8.2°
4
1%
20:00
16°
1018.5 hPa 0.8 mm 8.8°
2
48%
 03:36     23:36    Daglengte: 20:00 Donderdag 27 Jun
02:00
11°
1017.8 hPa 0.8 mm 8.9°
0
47%
08:00
14°
1015.7 hPa 0.7 mm 8.8°
1
53%
14:00
17°
1013.9 hPa 0.6 mm 8.9°
1
54%
20:00
16°
1012.7 hPa 0.5 mm 9.5°
2
59%
 03:37     23:36    Daglengte: 19:59 Vrijdag 28 Jun
02:00
12°
1012.2 hPa 0.7 mm 9.4°
0
56%
08:00
13°
1010.9 hPa 1.2 mm 9.7°
1
64%
14:00
17°
1010.0 hPa 0.8 mm 10.2°
2
62%
20:00
15°
1009.5 hPa 0.8 mm 10.1°
2
56%
 03:39     23:35    Daglengte: 19:56 Zaterdag 29 Jun
02:00
11°
1009.7 hPa 0.8 mm 9.4°
0
54%
08:00
13°
1009.1 hPa 0.5 mm 9.3°
1
55%
14:00
16°
1009.0 hPa 0.7 mm 9.7°
2
58%
20:00
15°
1009.1 hPa 0.5 mm 9.7°
2
57%
 03:40     23:34    Daglengte: 19:54 Zondag 30 Jun
02:00
12°
1009.6 hPa 0.4 mm 9.4°
0
54%
08:00
13°
1008.8 hPa 0.6 mm 9.4°
0
54%
14:00
17°
1008.3 hPa 1.0 mm 9.8°
2
57%
20:00
16°
1008.5 hPa 1.1 mm 9.7°
2
52%
 03:41     23:33    Daglengte: 19:52 Maandag 01 Jul
02:00
11°
1009.4 hPa 1.0 mm 9.4°
1
46%
08:00
13°
1009.3 hPa 0.7 mm 9.3°
1
50%
14:00
16°
1009.6 hPa 0.9 mm 9.4°
2
54%
20:00
15°
1010.2 hPa 1.0 mm 9.2°
2
52%
  CAPE Lifted Index Hail Supercell Tornado SRH 3km CL BTM PRES CL TOP PRES Swiss DWD icon SMHI TS
 03:33     23:36    Daglengte: 20:03 Vandaag
02:00 5 J/kg 5.1 K 0 % 0 % 0 % 0 m²/s² 0 0 5.22 61
03:00 23 J/kg 4.8 K 0 % 0 % 0 % 0 m²/s² 0 0 4.92 61
04:00 40 J/kg 4.0 K 0 % 0 % 0 % 0 m²/s² 0 0 4.24 61
05:00 48 J/kg 4.0 K 0 % 0 % 0 % 0 m²/s² 0 0 4.54 61
06:00 50 J/kg 4.5 K 0 % 0 % 0 % 0 m²/s² 0 0 5.37 61
07:00 3 J/kg 6.2 K 0 % 0 % 0 % 0 m²/s² 0 0 8.18 61
08:00 0 J/kg 6.7 K 0 % 0 % 0 % 0 m²/s² 0 0 10.69 3
09:00 0 J/kg 7.1 K 0 % 0 % 0 % 0 m²/s² 0 0 11.75 3
10:00 0 J/kg 7.3 K 0 % 0 % 0 % 0 m²/s² 0 0 11.29 3
11:00 0 J/kg 6.7 K 0 % 0 % 0 % 0 m²/s² 0 0 10.6 2
12:00 0 J/kg 6.0 K 0 % 0 % 0 % 0 m²/s² 0 0 9.99 0
13:00 0 J/kg 4.7 K 0 % 0 % 0 % 0 m²/s² 0 0 7.94 0
14:00 0 J/kg 3.5 K 0 % 0 % 0 % 0 m²/s² 0 0 5.9 0
15:00 0 J/kg 3.4 K 0 % 0 % 0 % 0 m²/s² 0 0 4 1
16:00 0 J/kg 1.9 K 0 % 0 % 0 % 0 m²/s² 0 0 2.41 1
17:00 1 J/kg -0.1 K 0 % 0 % 0 % 0 m²/s² 0 0 -0.01 3
18:00 188 J/kg -0.8 K 0 % 0 % 0 % 0 m²/s² 0 0 -0.47 3
19:00 195 J/kg -0.7 K 0 % 0 % 0 % 0 m²/s² 0 0 -0.4 3
20:00 252 J/kg -0.8 K 0 % 0 % 0 % 0 m²/s² 0 0 0.94 3
21:00 295 J/kg -0.8 K 0 % 0 % 0 % 0 m²/s² 0 0 1.18 80
22:00 370 J/kg -1.0 K 0 % 0 % 0 % 0 m²/s² 0 0 1.16 61
23:00 429 J/kg -1.4 K 0 % 0 % 0 % 0 m²/s² 0 0 0.94 61
 03:33     23:36    Daglengte: 20:03 Morgen
00:00 433 J/kg -1.3 K 0 % 0 % 0 % 0 m²/s² 0 0 1.13 61
01:00 313 J/kg -0.7 K 0 % 0 % 0 % 0 m²/s² 0 0 2.33 61
02:00 152 J/kg 0.3 K 0 % 0 % 0 % 0 m²/s² 0 0 3.39 2
03:00 40 J/kg 1.2 K 0 % 0 % 0 % 0 m²/s² 0 0 3.81 1
04:00 2 J/kg 1.6 K 0 % 0 % 0 % 0 m²/s² 0 0 3.58 1
05:00 10 J/kg 1.2 K 0 % 0 % 0 % 0 m²/s² 0 0 3.12 3
06:00 37 J/kg 0.9 K 0 % 0 % 0 % 0 m²/s² 0 0 2.91 3
07:00 155 J/kg -0.2 K 0 % 0 % 0 % 0 m²/s² 0 0 1.39 3
08:00 342 J/kg -1.5 K 0 % 0 % 0 % 0 m²/s² 0 0 -0.33 3
09:00 415 J/kg -2.2 K 0 % 0 % 0 % 0 m²/s² 0 0 -1.27 3
10:00 464 J/kg -2.1 K 0 % 0 % 0 % 0 m²/s² 0 0 -0.03 3
11:00 444 J/kg -1.6 K 0 % 0 % 0 % 0 m²/s² 0 0 1.1 80
12:00 350 J/kg -1.0 K 0 % 0 % 0 % 0 m²/s² 0 0 1.55 1
13:00 262 J/kg -0.7 K 0 % 0 % 0 % 0 m²/s² 0 0 1.19 2
14:00 204 J/kg -0.5 K 0 % 0 % 0 % 0 m²/s² 0 0 1.84 1
15:00 161 J/kg -0.4 K 0 % 0 % 0 % 0 m²/s² 0 0 2.3 1
16:00 104 J/kg -0.4 K 0 % 0 % 0 % 0 m²/s² 0 0 1.73 1
17:00 122 J/kg -0.2 K 0 % 0 % 0 % 0 m²/s² 0 0 1.99 0
18:00 64 J/kg 0.3 K 0 % 0 % 0 % 0 m²/s² 0 0 2.37 2
19:00 32 J/kg 0.2 K 0 % 0 % 0 % 0 m²/s² 0 0 1.97 80
20:00 75 J/kg -1.1 K 0 % 0 % 0 % 0 m²/s² 0 0 0.16 80
21:00 211 J/kg -2.2 K 0 % 0 % 0 % 0 m²/s² 0 0 -1.36 3
22:00 384 J/kg -2.1 K 0 % 0 % 0 % 0 m²/s² 0 0 -1.32 3
23:00 412 J/kg -1.2 K 0 % 0 % 0 % 0 m²/s² 0 0 -0.27 3
 03:32     23:37    Daglengte: 20:05 Woensdag 19 Jun
00:00 339 J/kg 0.0 K 0 % 0 % 0 % 0 m²/s² 0 0 0.69 80
01:00 177 J/kg 1.9 K 0 % 0 % 0 % 0 m²/s² 0 0 3.01 80
02:00 35 J/kg 3.8 K 0 % 0 % 0 % 0 m²/s² 0 0 5.33 80
03:00 1 J/kg 3.6 K 0 % 0 % 0 % 0 m²/s² 0 0 5.79 2
04:00 0 J/kg 4.2 K 0 % 0 % 0 % 0 m²/s² 0 0 6.21 2
05:00 0 J/kg 4.6 K 0 % 0 % 0 % 0 m²/s² 0 0 6.88 3
06:00 0 J/kg 4.1 K 0 % 0 % 0 % 0 m²/s² 0 0 6.53 80
07:00 36 J/kg 4.3 K 0 % 0 % 0 % 0 m²/s² 0 0 6.52 3
08:00 86 J/kg 3.7 K 0 % 0 % 0 % 0 m²/s² 0 0 5.86 80
09:00 109 J/kg 3.0 K 0 % 0 % 0 % 0 m²/s² 0 0 5.37 3
10:00 135 J/kg 2.2 K 0 % 0 % 0 % 0 m²/s² 0 0 3.91 2
11:00 110 J/kg 2.4 K 0 % 0 % 0 % 0 m²/s² 0 0 3.9 3
12:00 113 J/kg 2.3 K 0 % 0 % 0 % 0 m²/s² 0 0 3.8 3
13:00 124 J/kg 2.3 K 0 % 0 % 0 % 0 m²/s² 0 0 3.53 3
14:00 85 J/kg 2.6 K 0 % 0 % 0 % 0 m²/s² 0 0 3.98 3
15:00 20 J/kg 3.6 K 0 % 0 % 0 % 0 m²/s² 0 0 5.28 2
16:00 6 J/kg 4.2 K 0 % 0 % 0 % 0 m²/s² 0 0 6.06 2
17:00 1 J/kg 4.6 K 0 % 0 % 0 % 0 m²/s² 0 0 6.52 3
18:00 0 J/kg 4.1 K 0 % 0 % 0 % 0 m²/s² 0 0 6.02 3
19:00 0 J/kg 4.0 K 0 % 0 % 0 % 0 m²/s² 0 0 5.74 3
20:00 0 J/kg 4.4 K 0 % 0 % 0 % 0 m²/s² 0 0 5.6 3
21:00 0 J/kg 4.0 K 0 % 0 % 0 % 0 m²/s² 0 0 4.81 3
22:00 0 J/kg 3.6 K 0 % 0 % 0 % 0 m²/s² 0 0 4.23 3
23:00 0 J/kg 3.4 K 0 % 0 % 0 % 0 m²/s² 0 0 3.82 3
 03:33     23:37    Daglengte: 20:04 Donderdag 20 Jun
00:00 0 J/kg 3.2 K 0 % 0 % 0 % 0 m²/s² 0 0 3.41 3
01:00 0 J/kg 3.4 K 0 % 0 % 0 % 0 m²/s² 0 0 3.58 3
Temp Baro Wind Neerslag
  EWN Forecast EWN WRFDA DWD ICON FMI HIRLAM MET Norway GFS
 03:33     23:36    Daglengte: 20:03 Vandaag
02:00 12.5° 1014.6 hPa 1.5 m/s 3.0 mm 12.2° 1013.4 hPa 4.1 m/s 8.4 mm 12.2° 1015.0 hPa 1.3 m/s 2.5 mm 12.9° 1014.2 hPa 1.0 m/s 0.0 mm 12.3° 1014.7 hPa 1.1 m/s 1.8 mm 11.6° 1013.9 hPa 0.6 m/s
05:00 12.2° 1014.3 hPa 1.5 m/s 6.6 mm 12.1° 1012.8 hPa 1.7 m/s 36.9 mm 11.9° 1014.8 hPa 1.4 m/s 1.4 mm 12.1° 1014.0 hPa 2.1 m/s 0.0 mm 12.2° 1014.4 hPa 0.9 m/s 1.1 mm 11.1° 1013.8 hPa 1.7 m/s
08:00 12.7° 1014.3 hPa 1.5 m/s 9.5 mm 13.9° 1012.7 hPa 2.7 m/s 39.8 mm 11.9° 1014.4 hPa 1.0 m/s 0.9 mm 11.9° 1013.7 hPa 1.1 m/s 0.0 mm 13.1° 1014.4 hPa 1.3 m/s 0.0 mm 11.9° 1013.6 hPa 1.7 m/s
11:00 14.2° 1013.2 hPa 2.6 m/s 0.0 mm 16.0° 1011.5 hPa 1.0 m/s 39.8 mm 14.0° 1014.0 hPa 2.5 m/s 0.0 mm 13.1° 1012.9 hPa 3.2 m/s 0.0 mm 15.0° 1013.2 hPa 2.1 m/s 0.0 mm 13.8° 1013.1 hPa 3.1 m/s
14:00 16.8° 1011.7 hPa 2.9 m/s 0.0 mm 18.4° 1009.5 hPa 1.8 m/s 39.8 mm 16.7° 1012.4 hPa 2.8 m/s 0.0 mm 16.2° 1010.9 hPa 4.5 m/s 0.0 mm 17.2° 1011.9 hPa 1.3 m/s 0.0 mm 16.4° 1011.2 hPa 3.0 m/s
17:00 18.0° 1009.3 hPa 2.9 m/s 0.0 mm 17.9° 1008.8 hPa 2.6 m/s 40.0 mm 17.8° 1009.5 hPa 2.4 m/s 0.0 mm 17.6° 1008.2 hPa 4.5 m/s 0.0 mm 18.9° 1009.7 hPa 1.8 m/s 0.0 mm 17.1° 1010.3 hPa 1.4 m/s
20:00 16.1° 1008.8 hPa 2.3 m/s 0.0 mm 15.6° 1007.9 hPa 2.1 m/s 42.4 mm 16.1° 1008.6 hPa 3.9 m/s 0.2 mm 14.4° 1006.7 hPa 1.0 m/s 0.0 mm 16.4° 1009.6 hPa 1.5 m/s 0.5 mm 15.0° 1008.8 hPa 0.6 m/s
23:00 14.3° 1009.0 hPa 2.4 m/s 3.2 mm 14.1° 1008.3 hPa 0.4 m/s 44.4 mm 13.4° 1009.1 hPa 2.6 m/s 2.4 mm 13.8° 1006.4 hPa 3.4 m/s 0.0 mm 15.4° 1009.6 hPa 1.2 m/s 0.0 mm 11.8° 1009.3 hPa 1.3 m/s
 03:33     23:36    Daglengte: 20:03 Morgen
02:00 13.2° 1008.9 hPa 1.5 m/s 0.0 mm 12.0° 1008.0 hPa 2.9 m/s 45.2 mm 12.5° 1009.0 hPa 0.8 m/s 2.7 mm 12.7° 1006.2 hPa 0.8 m/s 0.0 mm 13.6° 1010.1 hPa 1.6 m/s 0.0 mm 10.7° 1009.1 hPa 1.3 m/s
05:00 13.1° 1008.1 hPa 2.0 m/s 0.0 mm 12.4° 1007.1 hPa 3.5 m/s 45.3 mm 12.3° 1008.2 hPa 1.1 m/s 0.0 mm 12.7° 1005.8 hPa 0.5 m/s 0.0 mm 13.0° 1009.1 hPa 2.1 m/s 0.0 mm 11.2° 1008.5 hPa 2.2 m/s
08:00 14.7° 1007.2 hPa 2.8 m/s 0.0 mm 15.7° 1005.5 hPa 5.8 m/s 45.3 mm 13.7° 1007.0 hPa 0.7 m/s 0.1 mm 13.3° 1005.5 hPa 2.9 m/s 0.0 mm 14.6° 1008.3 hPa 2.7 m/s 0.0 mm 13.0° 1007.5 hPa 1.9 m/s
11:00 16.2° 1007.4 hPa 5.4 m/s 0.0 mm 16.4° 1005.9 hPa 8.5 m/s 46.7 mm 15.0° 1007.6 hPa 2.6 m/s 0.7 mm 13.0° 1006.5 hPa 5.4 m/s 0.0 mm 16.8° 1007.8 hPa 6.2 m/s 0.0 mm 15.8° 1007.4 hPa 2.6 m/s
14:00 16.2° 1007.9 hPa 6.0 m/s 6.8 mm 16.8° 1006.1 hPa 8.0 m/s 48.3 mm 16.1° 1008.1 hPa 6.8 m/s 0.6 mm 13.6° 1007.8 hPa 5.9 m/s 0.0 mm 17.1° 1008.4 hPa 5.9 m/s 0.0 mm 14.6° 1007.0 hPa 2.8 m/s
17:00 15.5° 1008.0 hPa 5.0 m/s 6.9 mm 15.9° 1006.5 hPa 7.0 m/s 48.3 mm 14.6° 1008.2 hPa 5.0 m/s 0.3 mm 15.1° 1007.8 hPa 4.3 m/s 0.0 mm 16.7° 1008.9 hPa 5.3 m/s 0.0 mm 13.5° 1006.9 hPa 3.1 m/s
20:00 14.2° 1007.9 hPa 2.5 m/s 10.7 mm 14.5° 1005.7 hPa 4.5 m/s 48.3 mm 13.2° 1008.3 hPa 1.7 m/s 1.3 mm 13.7° 1007.4 hPa 2.3 m/s 0.0 mm 15.4° 1009.1 hPa 2.4 m/s 0.0 mm 12.5° 1006.1 hPa 1.8 m/s
23:00 13.6° 1007.9 hPa 1.4 m/s 7.5 mm 13.3° 1006.4 hPa 1.3 m/s 51.2 mm 12.4° 1008.0 hPa 1.1 m/s 1.2 mm 14.0° 1009.0 hPa 1.1 m/s 0.0 mm 12.0° 1007.2 hPa 0.4 m/s
 03:32     23:37    Daglengte: 20:05 Woensdag 19 Jun
02:00 12.6° 1007.8 hPa 2.1 m/s 0.0 mm 12.0° 1006.3 hPa 2.8 m/s 53.2 mm 11.8° 1007.8 hPa 1.0 m/s 3.1 mm 12.5° 1009.3 hPa 2.2 m/s 0.0 mm 10.5° 1007.4 hPa 1.0 m/s
05:00 12.4° 1007.7 hPa 2.0 m/s 0.0 mm 11.6° 1006.7 hPa 5.7 m/s 53.3 mm 11.8° 1007.5 hPa 0.4 m/s 0.1 mm 12.3° 1009.4 hPa 1.8 m/s 0.0 mm 11.5° 1008.5 hPa 1.9 m/s
08:00 13.6° 1008.5 hPa 1.7 m/s 0.0 mm 13.9° 1006.3 hPa 5.8 m/s 53.4 mm 12.5° 1008.9 hPa 1.5 m/s 0.5 mm 13.6° 1009.2 hPa 0.8 m/s 0.0 mm 13.2° 1008.3 hPa 2.6 m/s
11:00 14.8° 1009.6 hPa 2.4 m/s 6.0 mm 13.3° 1007.6 hPa 4.4 m/s 53.9 mm 14.1° 1009.8 hPa 1.8 m/s 0.2 mm 15.7° 1009.8 hPa 2.3 m/s 0.0 mm 14.3° 1009.3 hPa 2.8 m/s
14:00 15.4° 1010.1 hPa 2.6 m/s 12.7 mm 13.9° 1008.2 hPa 4.5 m/s 55.9 mm 14.7° 1010.3 hPa 2.0 m/s 0.4 mm 16.3° 1010.4 hPa 2.5 m/s 0.0 mm 12.8° 1009.6 hPa 0.9 m/s
17:00 15.5° 1009.8 hPa 2.6 m/s 0.0 mm 14.5° 1007.9 hPa 2.7 m/s 57.2 mm 15.2° 1010.7 hPa 2.4 m/s 0.1 mm 16.0° 1009.8 hPa 2.6 m/s 14.8° 1009.7 hPa 1.7 m/s
20:00 15.2° 1009.1 hPa 2.2 m/s 0.0 mm 14.5° 1006.5 hPa 1.6 m/s 57.4 mm 14.7° 1010.1 hPa 1.2 m/s 0.0 mm 15.7° 1009.3 hPa 2.8 m/s 13.5° 1008.9 hPa 1.7 m/s
23:00 13.9° 1007.1 hPa 2.4 m/s 0.0 mm 13.7° 1005.0 hPa 3.3 m/s 57.4 mm 13.6° 1009.0 hPa 2.1 m/s 0.0 mm 14.1° 1007.0 hPa 2.3 m/s 11.6° 1008.5 hPa 1.7 m/s
 03:33     23:37    Daglengte: 20:04 Donderdag 20 Jun
02:00 12.7° 1004.7 hPa 2.1 m/s 0.0 mm 13.2° 1001.1 hPa 4.4 m/s 57.4 mm 13.1° 1006.4 hPa 1.7 m/s 0.1 mm 12.4° 1004.8 hPa 1.9 m/s 10.9° 1005.9 hPa 1.6 m/s
05:00 13.4° 1002.7 hPa 1.3 m/s 21.1 mm 13.6° 1002.7 hPa 1.2 m/s 11.4° 1003.3 hPa 1.5 m/s 21.1 mm
08:00 14.1° 1001.4 hPa 1.0 m/s 21.5 mm 14.2° 1001.6 hPa 0.9 m/s 12.4° 999.8 hPa 2.0 m/s 21.5 mm
11:00 15.5° 1002.1 hPa 2.6 m/s 21.5 mm 15.5° 1002.5 hPa 2.8 m/s 15.7° 997.5 hPa 0.5 m/s 21.5 mm
14:00 16.7° 1002.8 hPa 4.4 m/s 21.9 mm 16.8° 1003.4 hPa 4.6 m/s 15.8° 995.9 hPa 2.1 m/s 21.9 mm
17:00 15.6° 1003.9 hPa 4.4 m/s 22.7 mm 15.9° 1004.5 hPa 4.3 m/s 12.6° 998.3 hPa 4.7 m/s 22.7 mm
20:00 14.8° 1005.2 hPa 4.5 m/s 24.3 mm 15.0° 1005.5 hPa 4.1 m/s 12.2° 1001.7 hPa 8.8 m/s 24.3 mm
23:00 13.3° 1005.8 hPa 2.9 m/s 24.4 mm 13.5° 1005.9 hPa 2.8 m/s 10.9° 1004.8 hPa 4.3 m/s 24.4 mm
 03:33     23:38    Daglengte: 20:05 Vrijdag 21 Jun
02:00 11.9° 1006.3 hPa 1.4 m/s 24.5 mm 12.0° 1006.3 hPa 1.4 m/s 10.9° 1006.2 hPa 1.3 m/s 24.5 mm
05:00 12.5° 1006.8 hPa 1.2 m/s 25.1 mm 12.6° 1006.8 hPa 1.2 m/s 10.9° 1007.2 hPa 0.8 m/s 25.1 mm
08:00 13.0° 1007.2 hPa 1.0 m/s 26.0 mm 13.2° 1007.2 hPa 1.0 m/s 11.3° 1007.4 hPa 0.9 m/s 26.0 mm
11:00 14.0° 1007.9 hPa 1.6 m/s 27.0 mm 14.1° 1007.9 hPa 1.7 m/s 13.4° 1007.8 hPa 0.7 m/s 27.0 mm
14:00 14.8° 1008.5 hPa 2.4 m/s 28.4 mm 14.9° 1008.6 hPa 2.4 m/s 14.1° 1007.8 hPa 2.8 m/s 28.4 mm
17:00 13.8° 1008.7 hPa 2.8 m/s 29.0 mm 13.9° 1008.8 hPa 2.8 m/s 13.7° 1008.0 hPa 2.9 m/s 29.0 mm
20:00 12.8° 1008.8 hPa 2.9 m/s 29.7 mm 12.8° 1008.9 hPa 3.1 m/s 12.2° 1008.2 hPa 0.4 m/s 29.7 mm
23:00 11.6° 1009.1 hPa 3.4 m/s 30.6 mm 11.6° 1009.1 hPa 3.7 m/s 11.3° 1009.2 hPa 1.1 m/s 30.6 mm
 03:33     23:38    Daglengte: 20:05 Zaterdag 22 Jun
02:00 10.4° 1009.3 hPa 4.1 m/s 33.3 mm 10.4° 1009.3 hPa 4.2 m/s 10.3° 1009.7 hPa 3.0 m/s 33.3 mm
05:00 10.8° 1010.0 hPa 4.6 m/s 36.4 mm 10.9° 1010.0 hPa 5.0 m/s 9.9° 1010.4 hPa 0.8 m/s 36.4 mm
08:00 11.4° 1010.7 hPa 5.4 m/s 37.0 mm 11.4° 1010.6 hPa 5.7 m/s 11.0° 1011.4 hPa 1.9 m/s 37.0 mm
11:00 12.7° 1012.7 hPa 6.1 m/s 37.6 mm 12.8° 1012.7 hPa 6.3 m/s 12.3° 1013.2 hPa 4.5 m/s 37.6 mm
14:00 13.8° 1014.9 hPa 6.8 m/s 38.4 mm 14.1° 1014.8 hPa 6.9 m/s 10.1° 1015.5 hPa 5.8 m/s 38.4 mm
17:00 12.7° 1015.2 hPa 6.7 m/s 38.6 mm 12.9° 1015.0 hPa 6.8 m/s 10.0° 1017.3 hPa 5.8 m/s 38.6 mm
20:00 11.6° 1015.5 hPa 6.3 m/s 38.6 mm 11.7° 1015.2 hPa 6.6 m/s 10.4° 1018.5 hPa 3.3 m/s 38.6 mm
23:00 10.6° 1017.1 hPa 5.7 m/s 38.7 mm 10.8° 1016.9 hPa 6.2 m/s 9.3° 1019.9 hPa 0.8 m/s 38.7 mm
 03:33     23:38    Daglengte: 20:05 Zondag 23 Jun
02:00 9.7° 1018.7 hPa 5.2 m/s 38.7 mm 9.8° 1018.6 hPa 5.7 m/s 8.4° 1020.0 hPa 0.3 m/s 38.7 mm
05:00 9.9° 1018.5 hPa 5.2 m/s 38.7 mm 10.1° 1018.4 hPa 5.7 m/s 8.5° 1019.7 hPa 0.2 m/s 38.7 mm
08:00 10.3° 1018.2 hPa 5.2 m/s 38.7 mm 10.3° 1018.1 hPa 5.6 m/s 10.4° 1019.8 hPa 0.8 m/s 38.7 mm
11:00 12.2° 1020.9 hPa 4.7 m/s 38.9 mm 12.2° 1021.0 hPa 4.9 m/s 11.5° 1019.7 hPa 2.3 m/s 38.9 mm
14:00 14.1° 1023.7 hPa 4.0 m/s 39.2 mm 14.2° 1024.0 hPa 4.2 m/s 12.4° 1020.0 hPa 2.3 m/s 39.2 mm
17:00 13.4° 1023.7 hPa 3.1 m/s 39.4 mm 13.6° 1024.0 hPa 3.1 m/s 11.8° 1019.9 hPa 2.8 m/s 39.4 mm
20:00 12.8° 1023.7 hPa 2.0 m/s 39.5 mm 12.9° 1024.0 hPa 2.0 m/s 11.2° 1020.5 hPa 2.2 m/s 39.5 mm
23:00 11.1° 1023.7 hPa 1.6 m/s 39.6 mm 11.2° 1023.9 hPa 1.6 m/s 10.3° 1021.4 hPa 1.6 m/s 39.6 mm
 03:34     23:37    Daglengte: 20:03 Maandag 24 Jun
02:00 9.5° 1023.7 hPa 1.3 m/s 39.7 mm 9.5° 1023.8 hPa 1.3 m/s 9.5° 1022.1 hPa 1.8 m/s 39.7 mm
08:00 12.1° 1022.8 hPa 2.3 m/s 40.1 mm 12.3° 1022.8 hPa 2.3 m/s 9.5° 1023.0 hPa 2.3 m/s 40.1 mm
14:00 16.1° 1023.0 hPa 4.0 m/s 40.2 mm 16.5° 1023.0 hPa 4.1 m/s 11.3° 1022.7 hPa 3.2 m/s 40.2 mm
20:00 14.0° 1022.2 hPa 3.2 m/s 40.2 mm 14.3° 1022.2 hPa 3.3 m/s 11.1° 1022.7 hPa 2.2 m/s 40.2 mm
 03:35     23:37    Daglengte: 20:02 Dinsdag 25 Jun
02:00 10.6° 1022.3 hPa 2.3 m/s 40.2 mm 10.8° 1022.3 hPa 2.4 m/s 7.9° 1022.8 hPa 1.7 m/s 40.2 mm
08:00 12.2° 1021.8 hPa 2.0 m/s 40.2 mm 12.3° 1021.8 hPa 2.0 m/s 10.6° 1021.4 hPa 2.3 m/s 40.2 mm
14:00 14.8° 1023.0 hPa 3.7 m/s 40.2 mm 14.8° 1023.2 hPa 3.6 m/s 14.3° 1020.2 hPa 4.4 m/s 40.2 mm
20:00 12.9° 1021.9 hPa 4.1 m/s 40.2 mm 12.9° 1022.2 hPa 4.1 m/s 12.6° 1018.8 hPa 3.9 m/s 40.2 mm
 03:36     23:37    Daglengte: 20:01 Woensdag 26 Jun
02:00 10.3° 1022.3 hPa 3.0 m/s 40.2 mm 10.5° 1022.8 hPa 3.0 m/s 8.1° 1017.3 hPa 2.8 m/s 40.2 mm
08:00 11.3° 1021.2 hPa 2.8 m/s 40.2 mm 11.4° 1021.8 hPa 2.8 m/s 10.7° 1014.8 hPa 2.7 m/s 40.2 mm
14:00 14.4° 1012.8 hPa 4.1 m/s 40.2 mm 14.4° 1012.8 hPa 4.1 m/s 40.2 mm
20:00 15.5° 1018.5 hPa 1.9 m/s 0.8 mm
 03:36     23:36    Daglengte: 20:00 Donderdag 27 Jun
02:00 11.4° 1017.8 hPa 0.3 m/s 0.8 mm
08:00 13.5° 1015.7 hPa 0.6 m/s 0.7 mm
14:00 17.2° 1013.9 hPa 1.3 m/s 0.6 mm
20:00 15.8° 1012.7 hPa 1.6 m/s 0.5 mm
 03:37     23:36    Daglengte: 19:59 Vrijdag 28 Jun
02:00 11.7° 1012.2 hPa 0.3 m/s 0.7 mm
08:00 13.4° 1010.9 hPa 0.6 m/s 1.2 mm
14:00 16.7° 1010.0 hPa 1.9 m/s 0.8 mm
20:00 15.3° 1009.5 hPa 2.3 m/s 0.8 mm
 03:39     23:35    Daglengte: 19:56 Zaterdag 29 Jun
02:00 11.5° 1009.7 hPa 0.5 m/s 0.8 mm
08:00 13.2° 1009.1 hPa 0.7 m/s 0.5 mm
14:00 16.2° 1009.0 hPa 1.9 m/s 0.7 mm
20:00 15.0° 1009.1 hPa 2.2 m/s 0.5 mm
 03:40     23:34    Daglengte: 19:54 Zondag 30 Jun
02:00 11.5° 1009.6 hPa 0.4 m/s 0.4 mm
08:00 13.5° 1008.8 hPa 0.5 m/s 0.6 mm
14:00 16.8° 1008.3 hPa 1.9 m/s 1.0 mm
20:00 15.5° 1008.5 hPa 1.9 m/s 1.1 mm
 03:41     23:33    Daglengte: 19:52 Maandag 01 Jul
02:00 11.3° 1009.4 hPa 0.6 m/s 1.0 mm
08:00 13.4° 1009.3 hPa 0.7 m/s 0.7 mm